Starlink 1497

operational
NORAD ID: 45781 Int'l Des: 2020-038 Owner: SPXS Country: US Constellation: starlink
LEOCIRCULAR

关于 Starlink 1497

正在加载描述...

实时位置

正在加载3D地球...

即将过境

高度历史

Altitude vs Time

uPlot chart will show altitude changes over time

两行轨道根数

1 45781U 20038BD 26035.14590326 .00920624 45476-3 12849-2 0 9992
2 45781 53.0217 247.0184 0006157 218.0843 141.9754 16.05338167313105
Epoch: Feb 4, 2026 • Age: 10 hours

当前状态

高度 255.8 km
速度 7.76 km/s
星下点 -3.81°S, 94.59°E
发射日期 Jun 13, 2020
运行时间 5.6 years
类型 internet

技术详情

分类 Payload
质量 260.00 kg
干质量 248.00 kg
总质量 260.00 kg
长度 0.20 m
直径 2.80 m
跨度 9.00 m
形状 Box + pan
制造商 SPXS
平台类型 Starlink
阶段状态 In Orbit
所有者/国家 SPXS/US

大型星座

Loading constellations...